SES-6

Last updated on Thu Nov 06 2025 00:02:47 GMT+0000 (Coordinated Universal Time)

1 39172U 13026A 25309.09856825 -.00000249 00000+0 00000+0 0 9990 2 39172 0.0275 306.3965 0002831 281.6448 171.5485 1.00269471 45478
UTC large
Height (km)
Speed (km/s)
/
Latitude / Longitude
Inclination (degrees)
Orbital Period (minutes)
Azimuth
Elevation
Range (km)
Doppler Factor

Next 0 passes for location: London (51.5072 / 0.1276)

Sorry there are no passes over London.